HYLAS 4

Last updated on Tue Jul 01 2025 00:02:47 GMT+0000 (Coordinated Universal Time)

1 43272U 18033B 25181.49768508 -.00000234 00000+0 00000+0 0 9995 2 43272 0.0639 268.0131 0000957 201.2215 315.1718 1.00272173 26549
UTC large
Height (km)
Speed (km/s)
/
Latitude / Longitude
Inclination (degrees)
Orbital Period (minutes)
Azimuth
Elevation
Range (km)
Doppler Factor

Next 0 passes for location: London (51.5072 / 0.1276)

Sorry there are no passes over London.